Location: Newark
(48.1500°N, 2.9667°W)
Time: 17:03:19
(UTC+00:00)

Altair - Pass Details

Date: 01 February 2020
Orbit: 1502 x 1682 km, 47.2° (Epoch: 25 February)

Event Time Altitude Azimuth Distance (km) Brightness Sun altitude
Rises 13:06:05 0° 290° (WNW) 4,936 10.1 24.1°
Reaches altitude 10° 13:09:27 10° 285° (WNW) 3,949 9.7 24.0°
Maximum altitude 13:18:45 43° 218° (SW) 2,215 9.7 23.6°
Drops below altitude 10° 13:27:55 10° 152° (SSE) 3,880 10.4 23.2°
Sets 13:31:13 0° 145° (SE) 4,843 10.7 23.1°
